FW6920 Weather Reports


time (UTC)temp
C
wind
direction
speed
KPH
gust
KPH
rain 1hr
cm
rain 24hr
cm
rain mn
cm
humidity
%
barometer
mb
20260505181534 20 321 20.9 33.8 0.00 0.00 0.00 55 1015.1
20260505180043 20 320 22.5 33.8 0.00 0.00 0.00 56 1015.1
20260505174531 19 322 22.5 32.2 0.00 0.00 0.00 57 1015.1
20260505171532 19 322 20.9 32.2 0.00 0.00 0.00 58 1015.1
20260505170106 19 322 20.9 30.6 0.00 0.00 0.00 58 1015.1
20260505163107 19 320 19.3 30.6 0.00 0.00 0.00 59 1015.2
20260505161530 18 323 19.3 29.0 0.00 0.00 0.00 59 1015.3
20260505153028 17 327 12.9 19.3 0.00 0.00 0.00 64 1015.1
20260505151532 16 325 14.5 22.5 0.00 0.00 0.00 67 1015.0
20260505130107 13 320 12.9 20.9 0.00 0.00 0.00 75 1013.6
20260505123031 14 316 14.5 22.5 0.00 0.00 0.00 72 1013.4
20260505121529 15 315 16.1 25.7 0.00 0.00 0.00 72 1013.3
20260505120040 15 314 17.7 27.4 0.00 0.00 0.00 72 1013.1
20260505114535 15 316 17.7 29.0 0.00 0.00 0.00 72 1013.0
20260505113032 15 315 16.1 29.0 0.00 0.00 0.00 72 1013.0
20260505101531 16 315 19.3 29.0 0.00 0.00 0.00 68 1012.4
20260505100039 16 313 19.3 30.6 0.00 0.00 0.00 68 1012.3
20260505094531 16 314 19.3 30.6 0.00 0.00 0.00 68 1012.1
20260505091529 17 311 16.1 29.0 0.00 0.00 0.00 67 1012.0
20260505090030 17 311 12.9 24.1 0.00 0.00 0.00 67 1011.9
20260505083030 17 313 12.9 22.5 0.00 0.00 0.00 65 1011.9
20260505081535 17 314 11.3 22.5 0.00 0.00 0.00 63 1011.9
20260505080034 18 313 11.3 17.7 0.00 0.00 0.00 63 1011.9
20260505073106 18 316 11.3 24.1 0.00 0.00 0.00 60 1011.7
20260505071608 18 312 17.7 37.0 0.00 0.00 0.00 61 1011.4
20260505070033 18 313 14.5 29.0 0.00 0.00 0.00 60 1011.5
20260505064529 18 300 8.0 14.5 0.00 0.00 0.00 58 1011.6
20260505063029 19 299 12.9 27.4 0.00 0.00 0.00 56 1011.3
20260505061530 19 309 22.5 35.4 0.00 0.00 0.00 55 1010.9
20260505060045 20 312 24.1 37.0 0.00 0.00 0.00 53 1010.8
20260505054607 20 313 24.1 35.4 0.00 0.00 0.00 52 1010.7
20260505053031 20 310 24.1 35.4 0.00 0.00 0.00 51 1010.9
20260505051536 20 308 17.7 30.6 0.00 0.00 0.00 49 1011.0
20260505041530 21 310 22.5 37.0 0.00 0.00 0.00 46 1009.9
20260505034528 22 308 20.9 33.8 0.00 0.00 0.00 47 1009.6
20260505030032 22 303 17.7 37.0 0.00 0.00 0.00 46 1009.2
20260505024529 23 306 17.7 33.8 0.00 0.00 0.00 46 1009.0
20260505023030 23 307 16.1 27.4 0.00 0.00 0.00 45 1009.0
20260505020103 26 310 17.7 27.4 0.00 0.00 0.00 42 1009.0
20260505014603 27 324 14.5 29.0 0.00 0.00 0.00 41 1009.0
20260505010032 27 326 20.9 29.0 0.00 0.00 0.00 40 1008.9
20260505003031 28 330 22.5 30.6 0.00 0.00 0.00 39 1008.9
20260505001528 28 323 24.1 43.5 0.00 0.00 0.00 39 1009.0
20260505000035 28 323 25.7 40.2 0.00 0.00 0.00 39 1009.0
20260504234528 28 325 25.7 43.5 0.00 0.00 0.00 38 1008.8
20260504231529 29 325 25.7 37.0 0.00 0.00 0.00 37 1009.1
20260504230032 30 323 24.1 33.8 0.00 0.00 0.00 36 1009.2
20260504224531 30 323 22.5 33.8 0.00 0.00 0.00 36 1009.4
20260504223031 30 322 22.5 27.4 0.00 0.00 0.00 36 1009.6
20260504221538 30 326 22.5 29.0 0.00 0.00 0.00 37 1009.8
20260504220147 29 324 19.3 32.2 0.00 0.00 0.00 38 1009.9
20260504214530 28 322 19.3 33.8 0.00 0.00 0.00 38 1010.1
20260504213030 28 320 17.7 24.1 0.00 0.00 0.00 39 1010.2
20260504211534 28 328 17.7 25.7 0.00 0.00 0.00 39 1010.4
20260504210031 27 317 17.7 30.6 0.00 0.00 0.00 40 1010.5
20260504204530 27 319 20.9 33.8 0.00 0.00 0.00 41 1010.7
20260504201529 26 318 20.9 40.2 0.00 0.00 0.00 43 1010.9
20260504200033 26 319 19.3 38.6 0.00 0.00 0.00 44 1011.1
20260504194530 25 320 19.3 40.2 0.00 0.00 0.00 44 1011.1
20260504193030 25 321 19.3 27.4 0.00 0.00 0.00 44 1011.2
20260504191531 25 321 19.3 48.3 0.00 0.00 0.00 45 1011.3
20260504190031 25 321 19.3 45.1 0.00 0.00 0.00 45 1011.3
20260504184531 25 322 19.3 35.4 0.00 0.00 0.00 45 1011.4